This demonstration page uses our WeatherBlox Daily Observations layout. Learn more.

Left ArrowRight Arrow

Hourly Observations for November 30, 2018

Temp ( °F °C ) Dew Point ( °F °C ) Humidity (%) Winds ( mph kmh ) Pressure ( in mb ) Visibility ( mi km ) Precip ( " mm )
12:53 am 00:53 Clear 50 10 28 -2.2 43 43 SE 9 15 29.66 1005 10 16 0.00 0.00
1:53 am 01:53 Clear 48 8.9 28 -2.2 46 46 SE 10 17 29.65 1004 10 16 0.00 0.00
2:53 am 02:53 Clear 48 8.9 31 -0.6 52 52 SE 10 17 29.62 1003 10 16 0.00 0.00
3:53 am 03:53 Clear 46 7.8 35 1.7 66 66 SE 9 15 29.61 1003 10 16 0.00 0.00
4:53 am 04:53 Clear 49 9.4 41 5 74 74 SE 9 15 29.58 1002 10 16 0.00 0.00
5:53 am 05:53 Clear 50 10 44 6.7 80 80 SE 12 19 29.58 1002 10 16 0.00 0.00
6:53 am 06:53 Clear 50 10 44 6.7 80 80 SE 12 19 29.57 1001 10 16 0.00 0.00
7:53 am 07:53 Sunny 52 11.1 44 6.7 75 75 SSE 7 11 29.55 1001 10 16 0.00 0.00
8:53 am 08:53 Sunny 54 12.2 43 6.1 67 67 N 5 7 29.60 1002 10 16 0.00 0.00
9:53 am 09:53 Sunny 62 16.7 42 5.6 48 48 SSE 3 6 29.60 1002 10 16 0.00 0.00
10:53 am 10:53 Sunny 70 21.1 35 1.7 28 28 W 12 19 29.60 1002 10 16 0.00 0.00
11:53 am 11:53 Sunny 74 23.3 29 -1.7 19 19 W 20 31 29.57 1001 10 16 0.00 0.00
12:53 pm 12:53 Cloudy 74 23.3 25 -3.9 16 16 W 29 46 29.55 1001 7 11 0.00 0.00
1:53 pm 13:53 Cloudy 72 22.2 31 -0.6 22 22 WNW 35 56 29.55 1001 7 11 0.00 0.00
4:17 pm 16:17 Cloudy 66 18.9 30 -1.1 26 26 W 32 52 29.56 1001 8 13 0.00 0.00
6:53 pm 18:53 Clear 58 14.4 29 -1.7 33 33 W 21 33 29.67 1005 10 16 0.00 0.00
7:53 pm 19:53 Clear 57 13.9 31 -0.6 37 37 W 15 24 29.67 1005 10 16 0.00 0.00
8:53 pm 20:53 Clear 52 11.1 31 -0.6 45 45 WSW 7 11 29.69 1005 10 16 0.00 0.00
9:53 pm 21:53 Clear 49 9.4 31 -0.6 50 50 WSW 8 13 29.69 1005 10 16 0.00 0.00
10:53 pm 22:53 Clear 55 12.8 31 -0.6 40 40 W 17 28 29.66 1004 10 16 0.00 0.00

Powered by AerisWeather